TIANWANG 1C (TW-1C)
1 40926U 15051B   18122.40040241  .00006729  00000-0  12888-3 0  9996
2 40926  97.1880 164.9654 0012080  86.9199  32.1777 15.48290028146225
TIANWANG 1B (TW-1B)
1 40927U 15051C   18122.51215947  .00006513  00000-0  13013-3 0  9998
2 40927  97.1968 164.9342 0012063  96.3262  10.1847 15.47076324146150
TIANWANG 1A (TW-1A)
1 40928U 15051D   18122.48883200  .00002646  00000-0  71661-4 0  9995
2 40928  97.1890 157.3761 0013446 120.9657 348.8833 15.38469429145757
LAPAN A2
1 40931U 15052B   18119.22355493  .00000875  00000-0  32900-4 0  9991
2 40931   6.0053 139.2324 0013226  33.8420 326.2455 14.76575361139758
LQSAT
1 40958U 15057A   18122.44978468  .00000018  00000-0  10462-4 0  9994
2 40958  97.9423 196.5914 0019286 120.9126 239.3985 14.73027945138119
CHUBUSAT 2
1 41338U 16012B   18122.06448490  .00000321  00000-0  18406-4 0  9997
2 41338  31.0029 246.6830 0013994 336.2438  23.7550 14.99964639120904
CHUBUSAT 3
1 41339U 16012C   18122.41671203  .00000274  00000-0  14589-4 0  9992
2 41339  31.0106 243.1045 0013819 345.1531  14.8704 15.00153288120949
OUFTI-1
1 41458U 16025C   18122.34987383  .00001011  00000-0  57455-4 0  9998
2 41458  98.1411 182.7427 0168411 301.7776  56.7138 15.04529792110546
E-STAR-2
1 41459U 16025D   18122.41526461  .00000849  00000-0  49274-4 0  9991
2 41459  98.1409 182.6706 0169337 302.2232  56.2654 15.04272009110548
AAUSAT 4
1 41460U 16025E   18122.43652224  .00001700  00000-0  92539-4 0  9991
2 41460  98.1346 183.1221 0161356 298.2703  60.2306 15.05649067110607
NUSAT 1
1 41557U 16033B   18122.26812437  .00001146  00000-0  44369-4 0  9994
2 41557  97.4366 206.5733 0012740 325.8474  34.1945 15.28217495107145
BEESAT 4
1 41619U 16040W   18122.11503939  .00001326  00000-0  61085-4 0  9993
2 41619  97.4185 185.8924 0012592  39.2971 320.9176 15.21987558 91081
PRATHAM
1 41783U 16059A   18122.10595362  .00000083  00000-0  25602-4 0  9999
2 41783  98.1214 184.4002 0032462 239.0226 120.7785 14.62916834 85221
ALSAT 1N
1 41789U 16059G   18122.37541964  .00000062  00000-0  21031-4 0  9992
2 41789  98.1223 185.7947 0027247 229.7816 130.1001 14.64146835 85319
NAYIF 1
1 42017U 17008BX  18122.14640902  .00001450  00000-0  62274-4 0  9995
2 42017  97.4516 187.4721 0006764 167.5297 192.6109 15.24291923 67052
LILACSAT-1
1 42725U 98067ME  18122.48830637  .00019478  00000-0  18196-3 0  9990
2 42725  51.6363 230.8214 0004441  45.6044 314.5315 15.67297655 53353
MAX VALIER SAT
1 42778U 17036P   18122.46562407  .00000876  00000-0  42321-4 0  9990
2 42778  97.4074 182.9296 0011525 223.9259 136.1062 15.21204321 47555
